Overview Statistics Trail Chart Weather Telemetry Raw packets
 

This is the latest recevied weather packets stored in our database for station/object KE5QKR. If no packets are shown the sender has not sent any weather packets the latest 10 day(s).

<< 90 91 92 93 94 95 96 >>
Time Temp. Humidity Pressure Rain* Wind** Luminosity Snow
1777292669 21.67° C 99% 1013 hPa 0 mm - 69 W/m² -
1777292365 21.11° C 99% 1012.8 hPa 0 mm - 58 W/m² -
1777292061 20.56° C 99% 1012.9 hPa 0 mm - 48 W/m² -
1777291758 20.56° C 99% 1012.9 hPa 0 mm - 43 W/m² -
1777291455 20.56° C 99% 1012.7 hPa 0 mm - 41 W/m² -
1777291152 20° C 99% 1012.5 hPa 0 mm - 31 W/m² -
1777290849 20° C 99% 1012.5 hPa 0 mm - 27 W/m² -
1777290545 20° C 99% 1012.4 hPa 0 mm - 19 W/m² -
1777290242 19.44° C 99% 1012.6 hPa 0 mm - 15 W/m² -
1777289938 19.44° C 99% 1012.6 hPa 0 mm - 12 W/m² -
1777289634 19.44° C 99% 1012.4 hPa 0 mm - 9 W/m² -
1777289330 19.44° C 99% 1012.3 hPa 0 mm - 6 W/m² -
1777289026 19.44° C 99% 1012.3 hPa 0 mm - 4 W/m² -
1777288723 19.44° C 99% 1012.2 hPa 0 mm - 2 W/m² -
1777288421 19.44° C 99% 1012 hPa 0 mm - 1 W/m² -
1777288117 19.44° C 99% 1011.9 hPa 0 mm - 0 W/m² -
1777287813 20° C 99% 1012 hPa 0 mm - 0 W/m² -
1777287510 19.44° C 99% 1012 hPa 0 mm - 0 W/m² -
1777287205 19.44° C 99% 1011.8 hPa 0 mm - 0 W/m² -
1777286902 19.44° C 99% 1011.6 hPa 0 mm - 0 W/m² -
1777286600 19.44° C 99% 1011.6 hPa 0 mm - 0 W/m² -
1777286297 19.44° C 99% 1011.4 hPa 0 mm - 0 W/m² -
1777285994 19.44° C 99% 1011.7 hPa 0 mm - 0 W/m² -
1777285692 19.44° C 99% 1011.7 hPa 0 mm - 0 W/m² -
1777285389 19.44° C 99% 1011.5 hPa 0 mm - 0 W/m² -

* Rain latest hour (hover to see other rain measurements)
** Current wind speed in m/s (hover to see current wind gust speed)